Greenville, AL

12:12 PM CDT on August 18, 2017 (GMT -0500)
Greenville Municipal

Weather History for KPRN - February, 2012

Change the Weather History Date:

Wednesday, February 1, 2012

  Actual Average Record
Temperature  
Mean Temperature 57 °F -  
Max Temperature 62 °F 62 °F 83 °F (1957)
Min Temperature 52 °F 38 °F 20 °F (1936)
Degree Days  
Heating Degree Days 8    
Growing Degree Days 7 (Base 50)    
Moisture  
Dew Point 56 °F    
Average Humidity 90    
Maximum Humidity 97    
Minimum Humidity 72    
Precipitation  
Precipitation 0.22 in - - ()
Sea Level Pressure  
Sea Level Pressure 30.17 in    
Wind  
Wind Speed 4 mph (South)    
Max Wind Speed 10 mph    
Max Gust Speed -    
Visibility 10 miles    
Events Rain    
Averages and records for this station are not official NWS values.
T = Trace of Precipitation, MM = Missing Value Source: NWS Daily Summary

Daily Weather History Graph

Daily Weather History Graph

Search for Another Location

Airport or City:

Trip Planner

Search our weather history database for the weather conditions in past years. The results will help you decide how hot, cold, wet, or windy it might be!

Date:

Astronomy

Feb. 01, 2012 Rise Set
Actual Time 6:40 AM CST 5:20 PM CST
Civil Twilight 6:14 AM CST 5:45 PM CST
Nautical Twilight 5:45 AM CST 6:15 PM CST
Astronomical Twilight 5:16 AM CST 6:43 PM CST
Moon 11:53 AM CST (2/1) 1:20 AM CST (2/1)
Length of Visible Light 11h 31m
Length of Day
10h 40m
Waxing Gibbous, 65% of the Moon is Illuminated
Feb 1
Waxing Gibbous
Feb 7
Full
Feb 14
Last Quarter
Feb 21
New
Feb 29
First Quarter

Hourly Weather History & Observations

Time (CST) Temp. Dew Point Humidity Pressure Visibility Wind Dir Wind Speed Gust Speed Precip Events Conditions
12:56 AM 54.0 °F 50.0 °F 86% 30.24 in 10.0 mi SSE 3.5 mph - N/A   Clear
1:56 AM 54.0 °F 50.0 °F 86% 30.22 in 10.0 mi South 4.6 mph - N/A   Clear
2:56 AM 53.1 °F 50.0 °F 89% 30.20 in 10.0 mi SSE 3.5 mph - N/A   Clear
3:56 AM 52.0 °F 48.9 °F 89% 30.20 in 10.0 mi Calm Calm - N/A   Clear
4:56 AM 52.0 °F 50.0 °F 93% 30.20 in 10.0 mi ESE 3.5 mph - N/A   Clear
5:56 AM 52.0 °F 50.0 °F 93% 30.21 in 10.0 mi Calm Calm - N/A   Clear
6:56 AM 52.0 °F 50.0 °F 93% 30.21 in 10.0 mi SE 4.6 mph - N/A   Clear
7:56 AM 55.9 °F 51.1 °F 84% 30.21 in 10.0 mi Variable 3.5 mph - N/A   Clear
8:26 AM 57.0 °F 51.1 °F 81% 30.21 in 10.0 mi Calm Calm - N/A   Mostly Cloudy
8:56 AM 59.0 °F 51.1 °F 75% 30.19 in 10.0 mi SE 4.6 mph - N/A   Scattered Clouds
9:30 AM 57.9 °F 51.1 °F 78% 30.20 in 10.0 mi South 4.6 mph - 0.00 in Rain Light Rain
9:56 AM 59.0 °F 52.0 °F 78% 30.20 in 10.0 mi South 6.9 mph - 0.00 in   Clear
10:52 AM 62.1 °F 53.1 °F 72% 30.19 in 10.0 mi South 8.1 mph - 0.00 in   Mostly Cloudy
10:56 AM 62.1 °F 53.1 °F 72% 30.18 in 10.0 mi South 8.1 mph - 0.00 in   Mostly Cloudy
11:27 AM 59.0 °F 55.0 °F 87% 30.19 in 2.0 mi South 5.8 mph - 0.11 in Rain Rain
11:37 AM 59.0 °F 55.9 °F 90% 30.18 in 7.0 mi South 5.8 mph - 0.12 in Rain Light Rain
11:56 AM 59.0 °F 57.0 °F 93% 30.17 in 8.0 mi South 4.6 mph - 0.14 in Rain Light Rain
12:56 PM 59.0 °F 57.9 °F 96% 30.12 in 9.0 mi South 3.5 mph - 0.04 in Rain Light Rain
1:56 PM 61.0 °F 60.1 °F 97% 30.11 in 9.0 mi SW 4.6 mph - 0.03 in Rain Light Rain
2:56 PM 61.0 °F 60.1 °F 97% 30.12 in 10.0 mi SSW 10.4 mph - 0.01 in   Overcast
3:56 PM 62.1 °F 60.1 °F 93% 30.11 in 10.0 mi WSW 3.5 mph - N/A   Overcast
4:28 PM 62.1 °F 60.1 °F 93% 30.12 in 10.0 mi SSW 4.6 mph - N/A   Overcast
4:52 PM 62.1 °F 60.1 °F 93% 30.12 in 10.0 mi Calm Calm - N/A   Scattered Clouds
4:56 PM 62.1 °F 60.1 °F 93% 30.12 in 10.0 mi SW 3.5 mph - N/A   Scattered Clouds
5:34 PM 61.0 °F 60.1 °F 97% 30.10 in 9.0 mi South 4.6 mph - N/A   Mostly Cloudy
5:56 PM 61.0 °F 60.1 °F 97% 30.10 in 10.0 mi South 5.8 mph - N/A   Overcast
6:56 PM 61.0 °F 60.1 °F 97% 30.12 in 10.0 mi SSW 5.8 mph - N/A   Overcast
7:56 PM 61.0 °F 60.1 °F 97% 30.14 in 10.0 mi SSW 6.9 mph - N/A   Overcast
8:56 PM 61.0 °F 60.1 °F 97% 30.14 in 10.0 mi SSW 8.1 mph - N/A   Overcast
9:56 PM 61.0 °F 60.1 °F 97% 30.16 in 10.0 mi SW 4.6 mph - N/A   Overcast
10:47 PM 61.0 °F 59.0 °F 93% 30.17 in 10.0 mi SW 3.5 mph - N/A   Overcast
10:56 PM 61.0 °F 59.0 °F 93% 30.16 in 10.0 mi WSW 3.5 mph - N/A   Overcast
11:56 PM 60.1 °F 59.0 °F 96% 30.15 in 10.0 mi Calm Calm - N/A   Overcast